OBJECT D

Satellite information

Favourite Embed

Satellite Type and Status

UNKNOWNDECAYED

Key statistics

Satellite OBJECT D at a glance.

Uptime

2335

Days in orbit

Revolutions

≈ 16.2

Per day

Orbit

LEO

Low Earth Orbit

Inclination

45.0

Latest

Satellite identification and parameters

Extended collection of information and parameters for OBJECT D.

Object identification

Identified? True

Debris? False

Object name: OBJECT D

International designator: 2019-032D

Object number (NORAD): 44313

Object ID (CCSDS): 44313

Country: PEOPLES REPUBLIC OF CHINA (PRC)

Current information (Y/N): Y

RCS size: SMALL

Orbital parameters

Decay date: Oct. 26, 2025

Period: 88.67 minutes

Inclination: 44.9641 deg

SMA: 6586.871 km

Apoapsis: 217.418 km

Periapsis: 200.054 km

RAAN: 87.4344 deg

Eccentricy: 0.00131806

Argument of periapsis: 300.7865 deg

Mean anomaly: 59.1757 deg

Mean motion: 16.23992563 rev/day

Mean motion (dot): 0.04706318 rev/day2

B* drag term: 0.0016519799 1/REarth

Two-line elements (TLE)

Creation date: Oct. 31, 2025, 3 a.m.

Reference frame: TEME

Reference center: EARTH

Epoch: Oct. 25, 2025, 10:55 a.m. UTC

TLE line 0: 0 OBJECT D

TLE line 1: 1 44313U 19032D 25298.45519442 .04706318 10201-4 16520-2 0 9993

TLE line 2: 2 44313 44.9641 87.4344 0013181 300.7865 59.1757 16.23992563353324

Live tracking on map

Satellite OBJECT D has decayed and is no longer in orbit. No tracking available.

In-orbit conjunctions

Satellite OBJECT D has decayed and is no longer in orbit. No conjunctions available.

Associated space launch

The first sea launch of Long March 11 rocket. It carries 7 satellites, which include a new high-resolution Earth observation satellite Jilin-1 and several test satellites, verifying such technologies as sea surface wind measuring and satellite interlink communication.

OBJECT D was lifted into orbit during the mission ‘Long March 11 | Jilin-1 & others’, on board a Long March 11 space rocket.

The launch took place on June 5, 2019, 4:06 a.m. from Tai Rui mobile launch platform.

For more information about the launch, click the button.

Launch to space Long March 11 | Jilin-1 & others
Long March 11 | Jilin-1 & others

Agency: N/A

Status: Launch Successful

Launch date: June 5, 2019, 4:06 a.m. UTC

Rocket: Long March 11

Launch pad: Tai Rui mobile launch platform

Location: Sea Launch

...

Latest news about this satellite

There are no fresh news available about this satellite. Check back as we update our databases every day.


Newsletter sign-up

Weekly statistics, charts and insights to help you stay on top of the space industry.